TimeEDT,TemperatureF,Dew PointF,Humidity,Sea Level PressureIn,VisibilityMPH,Wind Direction,Wind SpeedMPH,Gust SpeedMPH,PrecipitationIn,Events,Conditions,WindDirDegrees,DateUTC
12:53 AM,24.1,19.0,81,29.60,10.0,NW,15.0,-,0.00,,Overcast,310,2014-03-16 04:53:00
1:39 AM,23.0,19.9,88,29.57,5.0,WNW,13.8,-,0.00,Snow,Light Snow,290,2014-03-16 05:39:00
1:51 AM,23.0,19.4,86,29.58,4.0,WNW,17.3,-,0.00,Snow,Light Snow,290,2014-03-16 05:51:00
1:53 AM,23.0,19.9,88,29.61,4.0,West,15.0,-,0.00,Snow,Light Snow,280,2014-03-16 05:53:00
2:53 AM,21.9,18.0,85,29.61,9.0,West,12.7,-,0.00,,Overcast,280,2014-03-16 06:53:00
3:28 AM,21.0,16.0,81,29.58,5.0,WNW,11.5,-,0.00,Snow,Light Snow,300,2014-03-16 07:28:00
3:53 AM,19.9,16.0,85,29.61,4.0,NW,12.7,-,0.00,Snow,Light Snow,310,2014-03-16 07:53:00
4:19 AM,19.9,16.0,85,29.58,2.0,NW,11.5,-,0.00,Snow,Light Snow,310,2014-03-16 08:19:00
4:22 AM,19.9,16.0,85,29.58,1.5,WNW,12.7,-,0.00,Snow,Light Snow,300,2014-03-16 08:22:00
4:31 AM,19.0,15.1,85,29.59,1.2,WNW,11.5,-,0.00,Snow,Light Snow,300,2014-03-16 08:31:00
4:38 AM,19.0,15.1,85,29.59,1.5,WNW,15.0,-,0.00,Snow,Light Snow,300,2014-03-16 08:38:00
4:46 AM,19.0,14.0,81,29.59,2.0,NW,16.1,-,0.00,Snow,Light Snow,310,2014-03-16 08:46:00
4:53 AM,18.0,14.0,84,29.63,4.0,WNW,13.8,-,0.00,Snow,Light Snow,300,2014-03-16 08:53:00
5:28 AM,17.1,10.9,77,29.60,5.0,West,21.9,28.8,0.00,Snow,Light Snow,280,2014-03-16 09:28:00
5:53 AM,15.1,10.0,80,29.64,10.0,WNW,17.3,-,0.00,,Overcast,290,2014-03-16 09:53:00
6:09 AM,15.1,9.0,77,29.61,10.0,West,19.6,-,N/A,,Mostly Cloudy,280,2014-03-16 10:09:00
6:22 AM,15.1,9.0,77,29.61,10.0,WNW,18.4,-,0.00,,Mostly Cloudy,290,2014-03-16 10:22:00
6:30 AM,14.0,9.0,80,29.62,10.0,WNW,18.4,-,0.00,,Overcast,290,2014-03-16 10:30:00
6:53 AM,12.9,8.1,81,29.67,10.0,West,16.1,-,0.00,,Scattered Clouds,280,2014-03-16 10:53:00
7:36 AM,12.0,6.1,77,29.65,6.0,WNW,20.7,-,0.00,Snow,Light Snow,290,2014-03-16 11:36:00
7:53 AM,12.0,6.1,77,29.69,9.0,West,21.9,-,0.00,,Scattered Clouds,280,2014-03-16 11:53:00
8:53 AM,12.0,3.9,70,29.70,10.0,West,18.4,27.6,0.00,,Partly Cloudy,280,2014-03-16 12:53:00
9:18 AM,12.9,3.0,65,29.66,5.0,West,20.7,38.0,0.00,,Mostly Cloudy,270,2014-03-16 13:18:00
9:53 AM,12.0,3.0,67,29.71,8.0,West,20.7,31.1,0.00,,Overcast,280,2014-03-16 13:53:00
10:04 AM,12.9,3.0,65,29.66,5.0,West,26.5,35.7,0.00,,Overcast,280,2014-03-16 14:04:00
10:53 AM,12.0,1.0,61,29.72,2.5,West,28.8,39.1,0.00,Snow,Blowing Snow,280,2014-03-16 14:53:00
11:01 AM,12.9,-0.0,56,29.67,5.0,West,25.3,36.8,N/A,Snow,Blowing Snow,280,2014-03-16 15:01:00
11:53 AM,12.0,-0.9,56,29.73,4.0,WNW,29.9,42.6,N/A,Snow,Blowing Snow,290,2014-03-16 15:53:00
12:53 PM,12.9,-2.0,51,29.73,10.0,WNW,20.7,34.5,N/A,,Mostly Cloudy,290,2014-03-16 16:53:00
1:53 PM,14.0,-0.0,54,29.74,10.0,West,21.9,33.4,N/A,,Overcast,280,2014-03-16 17:53:00
2:53 PM,12.9,-2.0,51,29.77,10.0,WNW,20.7,33.4,N/A,,Mostly Cloudy,290,2014-03-16 18:53:00
3:53 PM,12.0,-2.9,51,29.79,10.0,West,21.9,35.7,N/A,,Overcast,270,2014-03-16 19:53:00
4:53 PM,10.9,-2.0,56,29.81,10.0,West,24.2,36.8,0.00,,Overcast,270,2014-03-16 20:53:00
5:53 PM,9.0,1.9,73,29.82,4.0,West,20.7,26.5,0.00,Snow,Light Snow,270,2014-03-16 21:53:00
6:53 PM,8.1,-7.1,50,29.85,10.0,West,27.6,35.7,0.00,,Mostly Cloudy,280,2014-03-16 22:53:00
7:53 PM,6.1,-6.0,58,29.88,10.0,West,15.0,25.3,N/A,,Partly Cloudy,280,2014-03-16 23:53:00
8:53 PM,5.0,-8.0,55,29.88,10.0,WNW,23.0,36.8,N/A,,Clear,290,2014-03-17 00:53:00
9:53 PM,3.0,-11.0,52,29.90,10.0,WNW,20.7,28.8,N/A,,Clear,290,2014-03-17 01:53:00
10:53 PM,1.9,-11.0,55,29.91,10.0,WNW,20.7,33.4,N/A,,Clear,290,2014-03-17 02:53:00
11:53 PM,1.0,-11.0,57,29.92,10.0,WNW,17.3,27.6,N/A,,Clear,290,2014-03-17 03:53:00